| time (UTC) | temp F | wind direction | speed knots | gust knots | rain 1hr in | rain 24hr in | rain mn in | humidity % | barometer mb |
| 20260509051419 | 50 | 235 | 4.3 | 7.0 | 0.00 | 0.00 | 0.00 | 72 | 1012.7 |
| 20260509051316 | 50 | 240 | 3.5 | 7.0 | 0.00 | 0.00 | 0.00 | 71 | 1012.7 |
| 20260509050427 | 51 | 242 | 3.5 | 6.1 | 0.00 | 0.00 | 0.00 | 69 | 1012.8 |
| 20260509050320 | 51 | 230 | 4.3 | 6.1 | 0.00 | 0.00 | 0.00 | 69 | 1012.7 |
| 20260509045432 | 53 | 215 | 3.5 | 4.3 | 0.00 | 0.00 | 0.00 | 65 | 1012.8 |
| 20260509045322 | 53 | 221 | 3.5 | 4.3 | 0.00 | 0.00 | 0.00 | 65 | 1012.8 |
| 20260509044413 | 53 | 213 | 2.6 | 3.5 | 0.00 | 0.00 | 0.00 | 64 | 1012.8 |
| 20260509044326 | 53 | 204 | 2.6 | 3.5 | 0.00 | 0.00 | 0.00 | 64 | 1012.8 |
| 20260509043416 | 52 | 205 | 3.5 | 4.3 | 0.00 | 0.00 | 0.00 | 65 | 1012.8 |
| 20260509043310 | 52 | 210 | 3.5 | 4.3 | 0.00 | 0.00 | 0.00 | 65 | 1012.8 |
| 20260509042422 | 54 | 215 | 3.5 | 5.2 | 0.00 | 0.00 | 0.00 | 64 | 1013.0 |
| 20260509042318 | 54 | 217 | 3.5 | 5.2 | 0.00 | 0.00 | 0.00 | 63 | 1013.0 |
| 20260509041431 | 56 | 203 | 2.6 | 4.3 | 0.00 | 0.00 | 0.00 | 58 | 1012.9 |
| 20260509041321 | 56 | 150 | 1.7 | 4.3 | 0.00 | 0.00 | 0.00 | 58 | 1012.9 |
| 20260509040412 | 56 | 157 | 2.6 | 3.5 | 0.00 | 0.00 | 0.00 | 56 | 1012.9 |
| 20260509040325 | 56 | 147 | 2.6 | 3.5 | 0.00 | 0.00 | 0.00 | 56 | 1012.8 |
| 20260509035435 | 55 | 187 | 1.7 | 2.6 | 0.00 | 0.00 | 0.00 | 58 | 1012.8 |
| 20260509035348 | 55 | 187 | 1.7 | 2.6 | 0.00 | 0.00 | 0.00 | 58 | 1012.9 |
| 20260509034418 | 54 | 187 | 1.7 | 3.5 | 0.00 | 0.00 | 0.00 | 60 | 1012.8 |
| 20260509034329 | 54 | 187 | 1.7 | 3.5 | 0.00 | 0.00 | 0.00 | 60 | 1012.8 |
| 20260509033420 | 55 | 146 | 0.9 | 2.6 | 0.00 | 0.00 | 0.00 | 62 | 1012.8 |
| 20260509033315 | 55 | 125 | 0.0 | 0.0 | 0.00 | 0.00 | 0.00 | 60 | 1012.7 |
| 20260509032427 | 55 | 125 | 0.0 | 0.0 | 0.00 | 0.00 | 0.00 | 63 | 1012.6 |
| 20260509032318 | 55 | 125 | 0.0 | 0.0 | 0.00 | 0.00 | 0.00 | 64 | 1012.7 |
| 20260509031410 | 55 | 125 | 0.0 | 0.0 | 0.00 | 0.00 | 0.00 | 57 | 1012.6 |
| 20260509031323 | 56 | 125 | 0.0 | 0.0 | 0.00 | 0.00 | 0.00 | 57 | 1012.5 |
| 20260509030413 | 55 | 125 | 0.0 | 0.0 | 0.00 | 0.00 | 0.00 | 59 | 1012.4 |
| 20260509030323 | 55 | 125 | 0.0 | 0.0 | 0.00 | 0.00 | 0.00 | 59 | 1012.4 |
| 20260509025435 | 56 | 125 | 0.0 | 0.0 | 0.00 | 0.00 | 0.00 | 65 | 1012.3 |
| 20260509025346 | 56 | 125 | 0.0 | 0.0 | 0.00 | 0.00 | 0.00 | 65 | 1012.4 |
| 20260509024418 | 56 | 56 | 0.0 | 0.0 | 0.00 | 0.00 | 0.00 | 59 | 1012.2 |
| 20260509024315 | 56 | 56 | 0.0 | 0.0 | 0.00 | 0.00 | 0.00 | 59 | 1012.2 |
| 20260509023447 | 57 | 17 | 0.0 | 0.0 | 0.00 | 0.00 | 0.00 | 59 | 1012.2 |
| 20260509023320 | 57 | 17 | 0.0 | 0.0 | 0.00 | 0.00 | 0.00 | 61 | 1012.2 |
| 20260509022410 | 58 | 17 | 0.0 | 0.0 | 0.00 | 0.00 | 0.00 | 65 | 1012.0 |
| 20260509022343 | 58 | 17 | 0.0 | 0.0 | 0.00 | 0.00 | 0.00 | 61 | 1012.0 |
| 20260509021413 | 60 | 17 | 0.0 | 0.9 | 0.00 | 0.00 | 0.00 | 62 | 1012.1 |
| 20260509021325 | 60 | 17 | 0.0 | 0.0 | 0.00 | 0.00 | 0.00 | 62 | 1012.1 |
| 20260509020418 | 62 | 17 | 0.0 | 1.7 | 0.00 | 0.00 | 0.00 | 58 | 1012.0 |
| 20260509020314 | 62 | 17 | 0.0 | 1.7 | 0.00 | 0.00 | 0.00 | 58 | 1011.9 |
| 20260509015427 | 63 | 16 | 1.7 | 1.7 | 0.00 | 0.00 | 0.00 | 48 | 1012.0 |
| 20260509015319 | 63 | 16 | 0.9 | 1.7 | 0.00 | 0.00 | 0.00 | 47 | 1011.9 |
| 20260509014410 | 64 | 355 | 0.9 | 2.6 | 0.00 | 0.00 | 0.00 | 46 | 1012.0 |
| 20260509014323 | 65 | 355 | 1.7 | 2.6 | 0.00 | 0.00 | 0.00 | 49 | 1012.0 |
| 20260509013433 | 66 | 338 | 0.9 | 2.6 | 0.00 | 0.00 | 0.00 | 48 | 1011.9 |
| 20260509013326 | 66 | 338 | 0.9 | 2.6 | 0.00 | 0.00 | 0.00 | 48 | 1011.9 |
| 20260509012418 | 67 | 350 | 0.0 | 0.0 | 0.00 | 0.00 | 0.00 | 47 | 1011.8 |
| 20260509012311 | 67 | 350 | 0.0 | 1.7 | 0.00 | 0.00 | 0.00 | 48 | 1011.8 |
| 20260509011422 | 68 | 344 | 0.9 | 3.5 | 0.00 | 0.00 | 0.00 | 43 | 1011.8 |
| 20260509011340 | 68 | 340 | 1.7 | 4.3 | 0.00 | 0.00 | 0.00 | 43 | 1011.8 |
| 20260509010430 | 69 | 331 | 4.3 | 5.2 | 0.00 | 0.00 | 0.00 | 43 | 1011.8 |
| 20260509010320 | 69 | 324 | 3.5 | 5.2 | 0.00 | 0.00 | 0.00 | 42 | 1011.8 |
| 20260509005431 | 70 | 319 | 1.7 | 5.2 | 0.00 | 0.00 | 0.00 | 39 | 1011.6 |
| 20260509005323 | 70 | 339 | 2.6 | 5.2 | 0.00 | 0.00 | 0.00 | 39 | 1011.6 |
| 20260509004411 | 71 | 336 | 2.6 | 5.2 | 0.00 | 0.00 | 0.00 | 36 | 1011.7 |
| 20260509004323 | 71 | 337 | 2.6 | 5.2 | 0.00 | 0.00 | 0.00 | 37 | 1011.6 |
| 20260509003434 | 72 | 360 | 1.7 | 4.3 | 0.00 | 0.00 | 0.00 | 37 | 1011.7 |
| 20260509003327 | 72 | 351 | 1.7 | 4.3 | 0.00 | 0.00 | 0.00 | 36 | 1011.7 |
| 20260509002436 | 72 | 46 | 3.5 | 7.8 | 0.00 | 0.00 | 0.00 | 36 | 1011.5 |
| 20260509002326 | 72 | 360 | 4.3 | 7.8 | 0.00 | 0.00 | 0.00 | 36 | 1011.5 |
| 20260509001437 | 72 | 338 | 4.3 | 8.7 | 0.00 | 0.00 | 0.00 | 36 | 1011.6 |
| 20260509001313 | 72 | 5 | 4.3 | 10.4 | 0.00 | 0.00 | 0.00 | 37 | 1011.6 |
| 20260509000425 | 72 | 360 | 7.8 | 13.0 | 0.00 | 0.00 | 0.00 | 36 | 1011.4 |
| 20260509000318 | 72 | 355 | 9.6 | 13.0 | 0.00 | 0.00 | 0.00 | 35 | 1011.4 |
| 20260508235451 | 73 | 38 | 8.7 | 13.0 | 0.00 | 0.00 | 0.00 | 36 | 1011.2 |
| 20260508235321 | 73 | 53 | 7.8 | 13.9 | 0.00 | 0.00 | 0.00 | 36 | 1011.2 |
| 20260508234432 | 73 | 34 | 7.8 | 15.6 | 0.00 | 0.00 | 0.00 | 35 | 1011.3 |
| 20260508234323 | 73 | 23 | 7.8 | 15.6 | 0.00 | 0.00 | 0.00 | 35 | 1011.3 |
| 20260508233412 | 73 | 48 | 7.8 | 14.8 | 0.00 | 0.00 | 0.00 | 37 | 1011.3 |
| 20260508233345 | 73 | 55 | 7.8 | 15.6 | 0.00 | 0.00 | 0.00 | 37 | 1011.3 |
| 20260508232416 | 74 | 36 | 7.0 | 13.0 | 0.00 | 0.00 | 0.00 | 36 | 1011.2 |
| 20260508232311 | 74 | 55 | 6.1 | 13.0 | 0.00 | 0.00 | 0.00 | 36 | 1011.2 |
| 20260508231442 | 74 | 344 | 10.4 | 13.9 | 0.00 | 0.00 | 0.00 | 37 | 1011.4 |
| 20260508231314 | 74 | 323 | 8.7 | 13.9 | 0.00 | 0.00 | 0.00 | 36 | 1011.4 |
| 20260508230427 | 74 | 9 | 6.1 | 13.0 | 0.00 | 0.00 | 0.00 | 36 | 1011.4 |
| 20260508230318 | 74 | 5 | 5.2 | 13.0 | 0.00 | 0.00 | 0.00 | 36 | 1011.4 |
| 20260508225429 | 74 | 355 | 9.6 | 13.9 | 0.00 | 0.00 | 0.00 | 36 | 1011.5 |
| 20260508225341 | 74 | 15 | 9.6 | 13.9 | 0.00 | 0.00 | 0.00 | 37 | 1011.4 |
| 20260508224412 | 73 | 340 | 7.0 | 12.2 | 0.00 | 0.00 | 0.00 | 37 | 1011.6 |
| 20260508224345 | 73 | 321 | 7.0 | 12.2 | 0.00 | 0.00 | 0.00 | 39 | 1011.6 |
| 20260508223416 | 74 | 26 | 6.1 | 13.9 | 0.00 | 0.00 | 0.00 | 38 | 1011.7 |
| 20260508223332 | 74 | 43 | 6.1 | 13.9 | 0.00 | 0.00 | 0.00 | 38 | 1011.6 |
| 20260508222421 | 74 | 322 | 9.6 | 14.8 | 0.00 | 0.00 | 0.00 | 38 | 1011.6 |
| 20260508222314 | 74 | 331 | 10.4 | 15.6 | 0.00 | 0.00 | 0.00 | 39 | 1011.6 |
| 20260508221424 | 73 | 321 | 6.1 | 13.9 | 0.00 | 0.00 | 0.00 | 38 | 1011.8 |
| 20260508221317 | 73 | 310 | 3.5 | 13.9 | 0.00 | 0.00 | 0.00 | 36 | 1011.8 |
| 20260508220429 | 73 | 327 | 6.1 | 13.0 | 0.00 | 0.00 | 0.00 | 37 | 1011.9 |
| 20260508220319 | 73 | 329 | 7.0 | 13.0 | 0.00 | 0.00 | 0.00 | 37 | 1011.9 |
| 20260508215411 | 73 | 9 | 11.3 | 15.6 | 0.00 | 0.00 | 0.00 | 40 | 1012.0 |
| 20260508215328 | 73 | 350 | 10.4 | 15.6 | 0.00 | 0.00 | 0.00 | 40 | 1012.0 |
| 20260508214420 | 73 | 355 | 6.1 | 17.4 | 0.00 | 0.00 | 0.00 | 43 | 1012.1 |
| 20260508214313 | 72 | 5 | 5.2 | 17.4 | 0.00 | 0.00 | 0.00 | 44 | 1012.1 |
| 20260508213425 | 71 | 309 | 8.7 | 13.0 | 0.00 | 0.00 | 0.00 | 40 | 1012.3 |
| 20260508213317 | 71 | 349 | 7.0 | 13.0 | 0.00 | 0.00 | 0.00 | 41 | 1012.2 |
| 20260508212429 | 72 | 17 | 7.0 | 15.6 | 0.00 | 0.00 | 0.00 | 41 | 1012.4 |
| 20260508212320 | 72 | 61 | 6.1 | 15.6 | 0.00 | 0.00 | 0.00 | 41 | 1012.4 |
| 20260508211412 | 72 | 355 | 9.6 | 18.2 | 0.00 | 0.00 | 0.00 | 40 | 1012.4 |
| 20260508211345 | 72 | 355 | 10.4 | 18.2 | 0.00 | 0.00 | 0.00 | 40 | 1012.4 |
| 20260508210436 | 73 | 24 | 7.8 | 14.8 | 0.00 | 0.00 | 0.00 | 39 | 1012.3 |
| 20260508210331 | 73 | 49 | 8.7 | 14.8 | 0.00 | 0.00 | 0.00 | 40 | 1012.3 |
| 20260508205420 | 72 | 321 | 13.0 | 20.9 | 0.00 | 0.00 | 0.00 | 40 | 1012.5 |
| 20260508205313 | 72 | 327 | 11.3 | 20.9 | 0.00 | 0.00 | 0.00 | 39 | 1012.5 |
| 20260508204423 | 74 | 311 | 11.3 | 17.4 | 0.00 | 0.00 | 0.00 | 39 | 1012.6 |
| 20260508204315 | 74 | 327 | 12.2 | 17.4 | 0.00 | 0.00 | 0.00 | 38 | 1012.6 |
| 20260508203427 | 73 | 24 | 10.4 | 17.4 | 0.00 | 0.00 | 0.00 | 42 | 1012.6 |
| 20260508203320 | 73 | 333 | 8.7 | 17.4 | 0.00 | 0.00 | 0.00 | 42 | 1012.6 |
| 20260508202430 | 71 | 331 | 13.0 | 18.2 | 0.00 | 0.00 | 0.00 | 40 | 1012.7 |
| 20260508202327 | 71 | 331 | 13.0 | 16.5 | 0.00 | 0.00 | 0.00 | 39 | 1012.7 |
| 20260508201418 | 72 | 315 | 12.2 | 18.2 | 0.00 | 0.00 | 0.00 | 39 | 1012.8 |
| 20260508201352 | 72 | 332 | 13.0 | 18.2 | 0.00 | 0.00 | 0.00 | 39 | 1012.8 |
| 20260508200420 | 73 | 318 | 12.2 | 17.4 | 0.00 | 0.00 | 0.00 | 41 | 1012.8 |
| 20260508200313 | 72 | 323 | 9.6 | 16.5 | 0.00 | 0.00 | 0.00 | 41 | 1012.7 |
| 20260508195424 | 72 | 336 | 12.2 | 20.9 | 0.00 | 0.00 | 0.00 | 41 | 1012.8 |
| 20260508195317 | 72 | 25 | 12.2 | 22.6 | 0.00 | 0.00 | 0.00 | 41 | 1012.8 |
| 20260508194428 | 73 | 335 | 15.6 | 22.6 | 0.00 | 0.00 | 0.00 | 39 | 1012.9 |
| 20260508194317 | 73 | 328 | 13.0 | 17.4 | 0.00 | 0.00 | 0.00 | 41 | 1012.9 |
| 20260508193450 | 73 | 360 | 12.2 | 19.1 | 0.00 | 0.00 | 0.00 | 41 | 1012.9 |
| 20260508193326 | 73 | 336 | 11.3 | 19.1 | 0.00 | 0.00 | 0.00 | 41 | 1012.9 |
| 20260508192415 | 73 | 309 | 13.0 | 17.4 | 0.00 | 0.00 | 0.00 | 41 | 1012.9 |
| 20260508192327 | 73 | 304 | 13.0 | 17.4 | 0.00 | 0.00 | 0.00 | 41 | 1012.9 |
| 20260508191416 | 72 | 342 | 14.8 | 21.7 | 0.00 | 0.00 | 0.00 | 43 | 1012.9 |
| 20260508191326 | 72 | 328 | 11.3 | 20.9 | 0.00 | 0.00 | 0.00 | 43 | 1012.9 |
| 20260508190416 | 72 | 335 | 13.0 | 19.1 | 0.00 | 0.00 | 0.00 | 41 | 1012.8 |
| 20260508190327 | 72 | 308 | 13.0 | 19.1 | 0.00 | 0.00 | 0.00 | 42 | 1012.9 |
| 20260508185419 | 71 | 31 | 8.7 | 18.2 | 0.00 | 0.00 | 0.00 | 42 | 1012.9 |
| 20260508185315 | 71 | 36 | 7.0 | 18.2 | 0.00 | 0.00 | 0.00 | 41 | 1012.9 |
| 20260508184445 | 71 | 323 | 7.8 | 18.2 | 0.00 | 0.00 | 0.00 | 41 | 1013.0 |
| 20260508184317 | 71 | 330 | 9.6 | 20.0 | 0.00 | 0.00 | 0.00 | 41 | 1013.0 |
| 20260508183431 | 71 | 9 | 13.9 | 20.0 | 0.00 | 0.00 | 0.00 | 42 | 1013.1 |
| 20260508183324 | 71 | 324 | 13.9 | 17.4 | 0.00 | 0.00 | 0.00 | 43 | 1013.1 |
| 20260508182436 | 71 | 13 | 9.6 | 20.0 | 0.00 | 0.00 | 0.00 | 44 | 1013.1 |
| 20260508182325 | 71 | 49 | 9.6 | 20.0 | 0.00 | 0.00 | 0.00 | 43 | 1013.1 |
| 20260508181435 | 71 | 5 | 9.6 | 17.4 | 0.00 | 0.00 | 0.00 | 44 | 1013.2 |
| 20260508181326 | 71 | 342 | 9.6 | 17.4 | 0.00 | 0.00 | 0.00 | 43 | 1013.1 |
| 20260508180412 | 70 | 17 | 12.2 | 19.1 | 0.00 | 0.00 | 0.00 | 44 | 1013.4 |
| 20260508180329 | 70 | 37 | 13.0 | 19.1 | 0.00 | 0.00 | 0.00 | 44 | 1013.4 |
| 20260508175420 | 70 | 325 | 12.2 | 20.9 | 0.00 | 0.00 | 0.00 | 44 | 1013.5 |
| 20260508175313 | 69 | 355 | 14.8 | 20.9 | 0.00 | 0.00 | 0.00 | 44 | 1013.5 |
| 20260508174422 | 69 | 44 | 11.3 | 22.6 | 0.00 | 0.00 | 0.00 | 44 | 1013.4 |
| 20260508174316 | 69 | 9 | 11.3 | 22.6 | 0.00 | 0.00 | 0.00 | 44 | 1013.4 |
| 20260508173427 | 68 | 19 | 9.6 | 19.1 | 0.00 | 0.00 | 0.00 | 46 | 1013.5 |
| 20260508173321 | 68 | 355 | 9.6 | 20.9 | 0.00 | 0.00 | 0.00 | 46 | 1013.6 |
| 20260508172412 | 67 | 355 | 11.3 | 17.4 | 0.00 | 0.00 | 0.00 | 45 | 1013.7 |
| 20260508172345 | 67 | 340 | 9.6 | 17.4 | 0.00 | 0.00 | 0.00 | 47 | 1013.7 |
| 20260508171414 | 68 | 340 | 14.8 | 23.5 | 0.00 | 0.00 | 0.00 | 45 | 1013.8 |
| 20260508171312 | 68 | 331 | 14.8 | 23.5 | 0.00 | 0.00 | 0.00 | 45 | 1013.8 |
| 20260508170423 | 67 | 5 | 10.4 | 21.7 | 0.00 | 0.00 | 0.00 | 48 | 1013.8 |
| 20260508170316 | 67 | 14 | 9.6 | 21.7 | 0.00 | 0.00 | 0.00 | 48 | 1013.7 |
| 20260508165445 | 66 | 355 | 13.0 | 22.6 | 0.00 | 0.00 | 0.00 | 50 | 1013.6 |
| 20260508165317 | 66 | 344 | 13.9 | 22.6 | 0.00 | 0.00 | 0.00 | 49 | 1013.5 |
| 20260508164428 | 67 | 5 | 16.5 | 23.5 | 0.00 | 0.00 | 0.00 | 46 | 1013.4 |
| 20260508164321 | 67 | 360 | 17.4 | 23.5 | 0.00 | 0.00 | 0.00 | 47 | 1013.4 |
| 20260508163413 | 67 | 340 | 16.5 | 23.5 | 0.00 | 0.00 | 0.00 | 47 | 1013.4 |
| 20260508163326 | 67 | 338 | 16.5 | 23.5 | 0.00 | 0.00 | 0.00 | 48 | 1013.3 |
| 20260508162438 | 67 | 355 | 13.9 | 24.3 | 0.00 | 0.00 | 0.00 | 53 | 1013.4 |
| 20260508162313 | 66 | 28 | 13.9 | 25.2 | 0.00 | 0.00 | 0.00 | 52 | 1013.4 |
| 20260508161423 | 66 | 355 | 15.6 | 24.3 | 0.00 | 0.00 | 0.00 | 52 | 1013.3 |
| 20260508161316 | 66 | 11 | 17.4 | 23.5 | 0.00 | 0.00 | 0.00 | 53 | 1013.3 |
| 20260508160447 | 66 | 5 | 16.5 | 24.3 | 0.00 | 0.00 | 0.00 | 53 | 1013.3 |
| 20260508160318 | 66 | 333 | 15.6 | 24.3 | 0.00 | 0.00 | 0.00 | 55 | 1013.3 |
| 20260508155430 | 65 | 15 | 17.4 | 25.2 | 0.00 | 0.00 | 0.00 | 55 | 1013.3 |
| 20260508155322 | 65 | 350 | 17.4 | 25.2 | 0.00 | 0.00 | 0.00 | 56 | 1013.4 |
| 20260508154413 | 65 | 360 | 14.8 | 22.6 | 0.00 | 0.00 | 0.00 | 56 | 1013.4 |
| 20260508154324 | 65 | 346 | 15.6 | 22.6 | 0.00 | 0.00 | 0.00 | 56 | 1013.4 |
| 20260508153415 | 64 | 324 | 13.9 | 21.7 | 0.00 | 0.00 | 0.00 | 57 | 1013.4 |
| 20260508153313 | 64 | 319 | 13.0 | 21.7 | 0.00 | 0.00 | 0.00 | 57 | 1013.4 |
| 20260508152424 | 63 | 355 | 16.5 | 22.6 | 0.00 | 0.00 | 0.00 | 57 | 1013.5 |
| 20260508152315 | 63 | 343 | 15.6 | 22.6 | 0.00 | 0.00 | 0.00 | 57 | 1013.4 |
| 20260508151427 | 63 | 336 | 14.8 | 21.7 | 0.00 | 0.00 | 0.00 | 60 | 1013.4 |
| 20260508151319 | 63 | 335 | 13.9 | 21.7 | 0.00 | 0.00 | 0.00 | 62 | 1013.4 |
| 20260508150430 | 62 | 328 | 13.9 | 21.7 | 0.00 | 0.00 | 0.00 | 62 | 1013.4 |
| 20260508150322 | 61 | 315 | 13.9 | 21.7 | 0.00 | 0.00 | 0.00 | 63 | 1013.4 |
| 20260508145413 | 61 | 351 | 15.6 | 21.7 | 0.00 | 0.01 | 0.00 | 60 | 1013.4 |
| 20260508145328 | 62 | 345 | 17.4 | 21.7 | 0.00 | 0.01 | 0.00 | 60 | 1013.4 |
| 20260508144419 | 61 | 11 | 16.5 | 20.9 | 0.00 | 0.01 | 0.00 | 62 | 1013.3 |
| 20260508144312 | 61 | 9 | 16.5 | 20.9 | 0.00 | 0.01 | 0.00 | 63 | 1013.3 |
| 20260508143421 | 60 | 346 | 13.9 | 18.2 | 0.00 | 0.01 | 0.00 | 67 | 1013.3 |
| 20260508143315 | 60 | 360 | 12.2 | 18.2 | 0.00 | 0.01 | 0.00 | 69 | 1013.3 |
| 20260508142444 | 58 | 348 | 13.0 | 18.2 | 0.00 | 0.01 | 0.00 | 68 | 1013.2 |
| 20260508142315 | 58 | 5 | 12.2 | 18.2 | 0.00 | 0.01 | 0.00 | 68 | 1013.1 |
| 20260508141448 | 59 | 319 | 13.9 | 20.9 | 0.00 | 0.01 | 0.00 | 68 | 1013.2 |
| 20260508141339 | 59 | 325 | 13.0 | 20.9 | 0.00 | 0.01 | 0.00 | 67 | 1013.2 |
| 20260508140409 | 59 | 27 | 13.9 | 20.9 | 0.00 | 0.01 | 0.00 | 68 | 1013.3 |
| 20260508140326 | 59 | 360 | 13.9 | 20.9 | 0.00 | 0.01 | 0.00 | 68 | 1013.3 |
| 20260508135418 | 59 | 339 | 12.2 | 20.9 | 0.00 | 0.01 | 0.00 | 70 | 1013.2 |
| 20260508135311 | 58 | 339 | 12.2 | 20.9 | 0.00 | 0.01 | 0.00 | 69 | 1013.2 |
| 20260508134424 | 58 | 335 | 13.0 | 19.1 | 0.00 | 0.01 | 0.00 | 70 | 1013.0 |
| 20260508134336 | 58 | 331 | 14.8 | 19.1 | 0.00 | 0.01 | 0.00 | 71 | 1013.1 |
| 20260508133427 | 57 | 340 | 12.2 | 18.2 | 0.00 | 0.01 | 0.00 | 73 | 1013.0 |
| 20260508133320 | 57 | 26 | 12.2 | 18.2 | 0.00 | 0.01 | 0.00 | 73 | 1012.9 |
| 20260508132409 | 56 | 339 | 13.9 | 19.1 | 0.00 | 0.01 | 0.00 | 75 | 1012.8 |
| 20260508132322 | 55 | 329 | 13.9 | 19.1 | 0.00 | 0.01 | 0.00 | 75 | 1012.8 |
| 20260508131419 | 55 | 329 | 11.3 | 15.6 | 0.00 | 0.01 | 0.00 | 78 | 1012.7 |
| 20260508131311 | 54 | 332 | 12.2 | 15.6 | 0.00 | 0.01 | 0.00 | 78 | 1012.7 |
| 20260508130423 | 53 | 340 | 10.4 | 14.8 | 0.00 | 0.01 | 0.00 | 80 | 1012.5 |
| 20260508130333 | 53 | 342 | 10.4 | 14.8 | 0.00 | 0.01 | 0.00 | 80 | 1012.5 |
| 20260508125423 | 53 | 335 | 9.6 | 13.0 | 0.00 | 0.01 | 0.00 | 82 | 1012.3 |
| 20260508125336 | 53 | 315 | 9.6 | 13.0 | 0.00 | 0.01 | 0.00 | 82 | 1012.3 |
| 20260508124427 | 52 | 355 | 9.6 | 13.0 | 0.00 | 0.01 | 0.00 | 83 | 1012.2 |
| 20260508124320 | 52 | 329 | 8.7 | 13.0 | 0.00 | 0.01 | 0.00 | 83 | 1012.1 |
| 20260508123412 | 52 | 344 | 9.6 | 13.0 | 0.00 | 0.01 | 0.00 | 84 | 1011.9 |
| 20260508123312 | 52 | 332 | 8.7 | 11.3 | 0.00 | 0.01 | 0.00 | 84 | 1011.9 |
| 20260508122420 | 52 | 336 | 7.0 | 10.4 | 0.00 | 0.01 | 0.00 | 84 | 1011.7 |
| 20260508122331 | 52 | 333 | 7.8 | 10.4 | 0.00 | 0.01 | 0.00 | 84 | 1011.7 |
| 20260508121442 | 51 | 331 | 7.8 | 11.3 | 0.00 | 0.01 | 0.00 | 84 | 1011.5 |
| 20260508121313 | 51 | 340 | 7.8 | 11.3 | 0.00 | 0.01 | 0.00 | 85 | 1011.5 |
| 20260508120423 | 51 | 329 | 5.2 | 8.7 | 0.00 | 0.01 | 0.00 | 84 | 1011.3 |
| 20260508120316 | 51 | 344 | 4.3 | 8.7 | 0.00 | 0.01 | 0.00 | 84 | 1011.4 |
| 20260508115408 | 51 | 329 | 5.2 | 9.6 | 0.00 | 0.01 | 0.00 | 82 | 1011.4 |
| 20260508115320 | 51 | 12 | 6.1 | 9.6 | 0.00 | 0.01 | 0.00 | 82 | 1011.3 |
| 20260508114412 | 52 | 22 | 7.8 | 10.4 | 0.00 | 0.01 | 0.00 | 81 | 1011.1 |
| 20260508114308 | 52 | 348 | 8.7 | 10.4 | 0.00 | 0.01 | 0.00 | 81 | 1011.0 |
| 20260508113421 | 53 | 319 | 8.7 | 12.2 | 0.00 | 0.01 | 0.00 | 79 | 1011.0 |
| 20260508113334 | 53 | 360 | 8.7 | 12.2 | 0.00 | 0.01 | 0.00 | 79 | 1011.0 |
| 20260508112424 | 54 | 337 | 8.7 | 12.2 | 0.00 | 0.01 | 0.00 | 77 | 1010.9 |
| 20260508112317 | 54 | 24 | 8.7 | 12.2 | 0.00 | 0.01 | 0.00 | 77 | 1010.8 |
| 20260508111428 | 54 | 348 | 7.8 | 13.0 | 0.00 | 0.01 | 0.00 | 76 | 1010.8 |
| 20260508111320 | 55 | 351 | 7.0 | 14.8 | 0.00 | 0.01 | 0.00 | 76 | 1010.7 |
| 20260508110411 | 54 | 34 | 9.6 | 15.6 | 0.00 | 0.01 | 0.00 | 76 | 1010.8 |
| 20260508110309 | 54 | 355 | 10.4 | 15.6 | 0.00 | 0.01 | 0.00 | 76 | 1010.8 |
| 20260508105421 | 54 | 355 | 9.6 | 12.2 | 0.00 | 0.01 | 0.00 | 77 | 1010.6 |
| 20260508105314 | 54 | 355 | 10.4 | 12.2 | 0.00 | 0.01 | 0.00 | 77 | 1010.7 |
| 20260508104443 | 54 | 38 | 6.1 | 8.7 | 0.00 | 0.01 | 0.00 | 76 | 1010.3 |
| 20260508104313 | 55 | 5 | 6.1 | 8.7 | 0.00 | 0.01 | 0.00 | 76 | 1010.2 |
| 20260508103425 | 54 | 360 | 5.2 | 7.8 | 0.00 | 0.01 | 0.00 | 76 | 1010.1 |
| 20260508103319 | 54 | 42 | 4.3 | 12.2 | 0.00 | 0.01 | 0.00 | 76 | 1010.2 |
| 20260508102410 | 54 | 347 | 7.0 | 12.2 | 0.00 | 0.01 | 0.00 | 78 | 1010.3 |
| 20260508102322 | 54 | 342 | 6.1 | 9.6 | 0.00 | 0.01 | 0.00 | 78 | 1010.4 |
| 20260508101416 | 55 | 360 | 5.2 | 7.0 | 0.00 | 0.01 | 0.00 | 76 | 1010.4 |
| 20260508101328 | 55 | 360 | 5.2 | 7.0 | 0.00 | 0.01 | 0.00 | 76 | 1010.4 |
| 20260508100416 | 56 | 5 | 4.3 | 7.8 | 0.00 | 0.01 | 0.00 | 74 | 1010.4 |
| 20260508100328 | 56 | 23 | 4.3 | 10.4 | 0.00 | 0.01 | 0.00 | 74 | 1010.4 |
| 20260508095420 | 56 | 332 | 7.8 | 13.0 | 0.00 | 0.01 | 0.00 | 73 | 1010.7 |
| 20260508095312 | 56 | 333 | 8.7 | 13.0 | 0.00 | 0.01 | 0.00 | 73 | 1010.7 |
| 20260508094421 | 56 | 14 | 6.1 | 16.5 | 0.00 | 0.01 | 0.00 | 73 | 1010.7 |
| 20260508094311 | 56 | 5 | 8.7 | 16.5 | 0.00 | 0.01 | 0.00 | 73 | 1010.7 |
| 20260508093442 | 56 | 24 | 13.0 | 18.2 | 0.00 | 0.01 | 0.00 | 72 | 1010.8 |
| 20260508093318 | 56 | 13 | 13.0 | 18.2 | 0.00 | 0.01 | 0.00 | 72 | 1010.9 |
| 20260508092423 | 56 | 355 | 11.3 | 13.9 | 0.00 | 0.01 | 0.00 | 72 | 1011.0 |
| 20260508092317 | 56 | 360 | 11.3 | 13.9 | 0.00 | 0.01 | 0.00 | 72 | 1011.0 |
| 20260508091409 | 55 | 355 | 9.6 | 13.0 | 0.00 | 0.01 | 0.00 | 72 | 1010.8 |
| 20260508091322 | 56 | 350 | 7.8 | 11.3 | 0.00 | 0.01 | 0.00 | 72 | 1010.8 |
| 20260508090434 | 56 | 355 | 6.1 | 14.8 | 0.00 | 0.01 | 0.00 | 70 | 1010.8 |
| 20260508090326 | 56 | 62 | 6.1 | 14.8 | 0.00 | 0.01 | 0.00 | 70 | 1010.8 |
| 20260508085418 | 57 | 355 | 13.0 | 19.1 | 0.00 | 0.01 | 0.00 | 68 | 1010.8 |
| 20260508085311 | 57 | 39 | 12.2 | 19.1 | 0.00 | 0.01 | 0.00 | 68 | 1010.7 |
| 20260508084421 | 57 | 355 | 14.8 | 22.6 | 0.00 | 0.01 | 0.00 | 68 | 1010.8 |
| 20260508084319 | 57 | 349 | 16.5 | 22.6 | 0.00 | 0.01 | 0.00 | 68 | 1010.8 |
| 20260508083410 | 57 | 348 | 15.6 | 20.0 | 0.00 | 0.01 | 0.00 | 69 | 1010.8 |
| 20260508083323 | 57 | 346 | 14.8 | 20.0 | 0.00 | 0.01 | 0.00 | 69 | 1010.9 |
| 20260508082414 | 56 | 342 | 9.6 | 14.8 | 0.00 | 0.01 | 0.00 | 70 | 1011.3 |
| 20260508082346 | 56 | 309 | 9.6 | 14.8 | 0.00 | 0.01 | 0.00 | 70 | 1011.3 |
| 20260508081417 | 55 | 338 | 10.4 | 14.8 | 0.00 | 0.01 | 0.00 | 71 | 1011.4 |
| 20260508081309 | 55 | 325 | 10.4 | 14.8 | 0.00 | 0.01 | 0.00 | 71 | 1011.4 |
| 20260508080421 | 55 | 335 | 8.7 | 12.2 | 0.00 | 0.01 | 0.00 | 73 | 1011.3 |
| 20260508080318 | 55 | 328 | 9.6 | 13.0 | 0.00 | 0.01 | 0.00 | 73 | 1011.3 |
| 20260508075411 | 54 | 360 | 9.6 | 12.2 | 0.00 | 0.01 | 0.00 | 74 | 1011.4 |
| 20260508075323 | 54 | 329 | 9.6 | 12.2 | 0.00 | 0.01 | 0.00 | 74 | 1011.4 |
| 20260508074415 | 53 | 351 | 8.7 | 11.3 | 0.00 | 0.01 | 0.00 | 75 | 1011.5 |
| 20260508074325 | 53 | 343 | 8.7 | 11.3 | 0.00 | 0.01 | 0.00 | 75 | 1011.4 |
| 20260508073436 | 53 | 355 | 6.1 | 9.6 | 0.00 | 0.01 | 0.00 | 76 | 1011.3 |
| 20260508073310 | 53 | 5 | 5.2 | 9.6 | 0.00 | 0.01 | 0.00 | 76 | 1011.3 |
| 20260508072421 | 53 | 349 | 5.2 | 7.0 | 0.00 | 0.01 | 0.00 | 75 | 1011.1 |
| 20260508072314 | 53 | 9 | 4.3 | 7.0 | 0.00 | 0.01 | 0.00 | 75 | 1011.1 |
| 20260508071410 | 53 | 351 | 4.3 | 7.0 | 0.00 | 0.01 | 0.00 | 75 | 1011.2 |
| 20260508071323 | 53 | 9 | 4.3 | 7.0 | 0.00 | 0.01 | 0.00 | 75 | 1011.2 |
| 20260508070415 | 52 | 355 | 3.5 | 5.2 | 0.00 | 0.01 | 0.00 | 75 | 1011.2 |
| 20260508070328 | 52 | 347 | 3.5 | 5.2 | 0.00 | 0.01 | 0.00 | 75 | 1011.2 |
| 20260508065418 | 53 | 335 | 3.5 | 7.0 | 0.00 | 0.01 | 0.00 | 75 | 1011.4 |
| 20260508065311 | 53 | 355 | 3.5 | 7.0 | 0.00 | 0.01 | 0.00 | 75 | 1011.3 |
| 20260508064422 | 54 | 336 | 6.1 | 8.7 | 0.00 | 0.01 | 0.00 | 73 | 1011.4 |
| 20260508064335 | 53 | 355 | 6.1 | 9.6 | 0.00 | 0.01 | 0.00 | 73 | 1011.4 |
| 20260508063426 | 54 | 350 | 7.8 | 11.3 | 0.00 | 0.01 | 0.00 | 72 | 1011.5 |
| 20260508063323 | 54 | 322 | 7.0 | 11.3 | 0.00 | 0.01 | 0.00 | 73 | 1011.5 |
| 20260508062415 | 54 | 32 | 4.3 | 5.2 | 0.00 | 0.01 | 0.00 | 71 | 1011.4 |
| 20260508062328 | 54 | 37 | 4.3 | 5.2 | 0.00 | 0.01 | 0.00 | 71 | 1011.4 |
| 20260508061419 | 55 | 355 | 4.3 | 6.1 | 0.00 | 0.01 | 0.00 | 70 | 1011.5 |
| 20260508061312 | 55 | 338 | 4.3 | 7.0 | 0.00 | 0.01 | 0.00 | 70 | 1011.5 |
| 20260508060424 | 55 | 340 | 6.1 | 9.6 | 0.00 | 0.01 | 0.00 | 67 | 1011.7 |
| 20260508060315 | 55 | 331 | 6.1 | 10.4 | 0.00 | 0.01 | 0.00 | 67 | 1011.7 |
| 20260508055446 | 56 | 327 | 7.8 | 10.4 | 0.00 | 0.01 | 0.01 | 64 | 1011.7 |
| 20260508055315 | 56 | 350 | 6.1 | 10.4 | 0.00 | 0.01 | 0.01 | 64 | 1011.7 |
| 20260508054411 | 56 | 296 | 0.9 | 3.5 | 0.00 | 0.01 | 0.01 | 57 | 1011.3 |
| 20260508054343 | 56 | 202 | 0.9 | 1.7 | 0.00 | 0.01 | 0.01 | 55 | 1011.2 |
| 20260508053412 | 56 | 202 | 0.0 | 0.0 | 0.00 | 0.01 | 0.01 | 55 | 1011.1 |
| 20260508053327 | 56 | 202 | 0.0 | 0.0 | 0.00 | 0.01 | 0.01 | 55 | 1011.1 |
| 20260508052415 | 55 | 205 | 0.0 | 1.7 | 0.00 | 0.01 | 0.01 | 62 | 1011.1 |
| 20260508052328 | 55 | 205 | 0.0 | 1.7 | 0.00 | 0.01 | 0.01 | 61 | 1011.0 |